Regional Weather Roundup
Issued by NWS Newport/Morehead, NC

Current Version | Previous Version | Text Only | Print | Product List | Glossary Off
Versions: 1 2 3 4 5 6 7 8 9 10 11 12 13 14 15 16 17 18 19 20 21 22 23 24 25 26 27 28 29 30 31 32 33 34 35 36 37 38 39 40 41 42 43 44 45 46 47 48 49 50
000 ASUS42 KMHX 271313 RWRMHX WEATHER ROUNDUP FOR EASTERN NORTH CAROLINA NATIONAL WEATHER SERVICE NEWPORT/MOREHEAD CITY NC 900 AM EDT WED JUL 27 2016 NOTE: "FAIR" INDICATES FEW OR NO CLOUDS BELOW 12,000 FEET WITH NO SIGNIFICANT WEATHER AND/OR OBSTRUCTIONS TO VISIBILITY NCZ015>017-031-032-045>047-102-103-271400- NORTH COAST CITY SKY/WX TMP DP RH WIND PRES REMARKS EDENTON PTSUNNY 85 75 73 W3 29.99R ELIZABETH CITY MOSUNNY 82 76 81 W5 29.97S KITTY HAWK PTSUNNY 84 77 79 CALM 29.96S MANTEO N/A 81 79 95 W6 29.97S $$ NCZ045>047-081-094-103-104-271400- CENTRAL COAST CITY SKY/WX TMP DP RH WIND PRES REMARKS FRISCO CLOUDY 83 77 82 SW9 29.98S $$ NCZ095-097-098-100-101-271400- SOUTHERN COAST CITY SKY/WX TMP DP RH WIND PRES REMARKS BEAUFORT SUNNY 85 76 74 W10 29.99R CEDAR ISLAND NOT AVBL JACKSONVILLE MOSUNNY 84 74 71 W6 29.99R PINEY ISLAND NOT AVBL WILMINGTON SUNNY 85 74 69 W10 30.00R $$ NCZ011>013-027>030-043-044-078>080-089-090>093-098-271400- COASTAL PLAIN CITY SKY/WX TMP DP RH WIND PRES REMARKS AHOSKIE SUNNY 79 74 84 CALM 29.98S CLINTON SUNNY 82 76 81 SW6 30.00R ELIZABETHTOWN SUNNY 83 75 77 W6 30.00R GOLDSBORO MOSUNNY 85 78 79 W10 29.97R GREENVILLE SUNNY 84 79 84 N3 29.99S HAVELOCK MOSUNNY 85 75 72 W12 29.99R KENANSVILLE NOT AVBL KINSTON SUNNY 84 75 74 W8 29.99R NEW BERN MOSUNNY 84 75 74 W7 29.99R RICHLANDS MOSUNNY 84 76 76 W5 30.00R ROCKY MOUNT SUNNY 84 79 85 N3 29.98R WASHINGTON MOSUNNY 83 76 81 CALM 29.98S WHITEVILLE SUNNY 82 74 77 W3 30.01R $$ AMZ130-135-150-152-154-156-158-170-250-252-270-ANZ085-086-088-633-658-670-271400- MARINE OBSERVATIONS STATION/POSITION TIME TEMP WIND PRES WAVE SWELL AIR SEA DIR/SP/G HT/PER HT/PER (UTC) (F) (DEG/KT/KT) (MB) (FT/S) (FT/S) CHESAPEAKE LIGHT NOT AVBL 64 E VA BEACH 1250 80 80 130/ 4/ 4 1014.3 3/ 6 2/ 6 DUCK 1200 81 63 230/ 5/ 6 1013.9 2 E DUCK 1211 69 N/A 1/ 5 OREGON INLET 1200 82 85 240/ 7/ 8 1014.6 13E OREGON INLT 1200 81 N/A 3/ 6 2/ 6 HATTERAS CG 1200 81 83 230/ 6/ 8 1014.8 DIAMOND BUOY 1250 84 84 260/ 14/ 16 1015.1 4/ 5 2/ 9 CAPE LOOKOUT 1200 83 250/ 15/ 17 1015.0 BEAUFORT LAB 1200 83 82 250/ 7/ 14 1014.5 30 SE NEW RVR IN 1208 84 84 250/ 16/ 21 1015.5 30 SE NEW RVR IN 1225 84 N/A 4/ 5 27 SE WRIGHTSVLE 1208 84 84 240/ 14/ 19 1015.8 5 SE WRIGHTSVLE 1208 81 80 250/ 8/ 12 1016.5 225 S CAPE HAT 1150 84 84 270/ 14/ 17 1017.5 3/ 5 2/ 8 41 SE CHARLESTON 1250 85 86 260/ 16/ 17 1016.9 4/ 5 $$

USA.gov is the U.S. government's official web portal to all federal, state and local government web resources and services.